LA9TLA-1 Weather Reports


Display with metric or nautical units.
time (UTC)temp
F
wind
direction
speed
MPH
gust
MPH
rain 1hr
in
rain 24hr
in
rain mn
in
humidity
%
barometer
mb
20260506012749 40 360 4.0 7.0 0.00 0.00 0.00 51 1024.5
20260506005747 40 360 4.0 7.0 0.00 0.00 0.00 52 1024.5
20260506002744 40 45 5.0 9.0 0.00 0.00 0.00 53 1024.5
20260505235743 41 360 4.0 8.0 0.00 0.00 0.00 51 1024.6
20260505232742 41 360 5.0 10.0 0.00 0.00 0.00 42 1024.4
20260505222743 41 360 6.0 9.0 0.00 0.00 0.00 35 1024.4
20260505215743 41 45 6.0 11.0 0.00 0.00 0.00 31 1024.5
20260505212742 42 360 7.0 12.0 0.00 0.00 0.00 26 1024.4
20260505205746 42 360 6.0 12.0 0.00 0.00 0.00 18 1024.4
20260505202750 42 360 8.0 14.0 0.00 0.00 0.00 21 1024.5
20260505195744 42 292 8.0 14.0 0.00 0.00 0.00 10 1024.5
20260505192746 43 360 9.0 13.0 0.00 0.00 0.00 10 1024.4
20260505185746 44 360 10.0 13.0 0.00 0.00 0.00 10 1023.9
20260505182745 45 360 5.0 10.0 0.00 0.00 0.00 10 1023.7
20260505175745 46 270 5.0 11.0 0.00 0.00 0.00 10 1024.0
20260505172746 47 270 9.0 15.0 0.00 0.00 0.00 10 1023.7
20260505165745 47 270 8.0 16.0 0.00 0.00 0.00 10 1023.7
20260505152746 48 360 9.0 13.0 0.00 0.00 0.00 10 1023.7
20260505115745 46 360 9.0 13.0 0.00 0.00 0.00 10 1023.7
20260505112742 46 360 4.0 9.0 0.00 0.00 0.00 10 1023.6
20260505095746 43 360 5.0 8.0 0.00 0.00 0.00 10 1023.6
20260505085746 44 360 5.0 6.0 0.00 0.00 0.00 10 1023.4
20260505075744 45 360 0.0 3.0 0.00 0.00 0.00 10 1023.0
20260505072745 46 360 0.0 3.0 0.00 0.00 0.00 10 1023.0
20260505062744 43 360 0.0 3.0 0.00 0.00 0.00 35 1022.7
20260505055744 44 360 1.0 3.0 0.00 0.00 0.00 81 1023.0
20260505052745 40 45 0.0 4.0 0.00 0.00 0.00 99 1023.1
20260505035744 37 45 0.0 3.0 0.00 0.00 0.00 92 1022.2
20260505032744 38 45 0.0 4.0 0.00 0.00 0.00 89 1022.5
20260505025744 37 45 2.0 5.0 0.00 0.00 0.00 99 1022.4
20260505022744 37 45 0.0 5.0 0.00 0.00 0.00 91 1022.5
20260505015745 38 45 1.0 3.0 0.00 0.00 0.00 90 1022.2